Home   Weather   Perpignan   Past weeks

Flag for France Past Weather in Perpignan, Languedoc-Roussillon, France — Yesterday and Last 2 Weeks

Now
52 °F

Mostly cloudy.


Feels Like: 51 °F
Forecast: 43 / 58 °F
Wind: 3 mph from Southwest

Location: Perpignan Airport

Current Time: Dec 9, 2016 at 10:54:04 am

Latest Report: Dec 9, 2016 at 10:30 am


Visibility: N/A

Pressure: 30.48 "Hg

Humidity: 88%

Dew Point: 48 °F

Location of PerpignanLocation

Past Weather in Perpignan — Graph

°F

Perpignan Temperature Yesterday

Maximum temperature yesterday: 61 °F (at 1:00 pm)
Minimum temperature yesterday: 39 °F (at 5:30 am)
Average temperature yesterday: 50 °F

High & Low Weather Summary for the Past Weeks

 TemperatureHumidityPressure
High66 °F (Dec 2, 1:30 pm)100% (Nov 27, 12:00 am)30.54 "Hg (Nov 27, 12:00 am)
Low34 °F (Dec 2, 5:30 am)28% (Dec 2, 1:30 pm)29.74 "Hg (Nov 24, 9:00 am)
Average50 °F83%30.15 "Hg
* Reported Nov 24 9:00 am — Dec 9 9:30 am, Perpignan, Weather by CustomWeather, © 2016

Note: Actual official high and low records may vary slightly from our data, if they occured in-between our weather recording intervals... More about our weather records

Advertising

Perpignan Weather History for the Previous 24 Hours

Scroll right to see more
 ConditionsComfort  
Time TempWeatherWind HumidityBarometerVisibility
9:30 am
Fri, Dec 9
50 °FOvercast.3 mph94%30.48 "HgN/A
9:00 am48 °FOvercast.5 mph100%30.48 "HgN/A
8:30 am48 °FOvercast.3 mph94%30.48 "HgN/A
8:00 am46 °FOvercast.3 mph100%30.48 "Hg4 mi
7:30 am48 °FOvercast.3 mph94%30.48 "Hg4 mi
7:00 am46 °FOvercast.3 mph100%30.45 "Hg4 mi
6:30 am46 °FOvercast.1 mph100%30.45 "Hg6 mi
5:30 am46 °FFog.2 mph100%30.45 "Hg2 mi
5:00 am46 °FFog.5 mph100%30.45 "Hg1 mi
4:30 am48 °FLow clouds.3 mph100%30.45 "Hg4 mi
4:00 am46 °FLow clouds.2 mph100%30.48 "Hg6 mi
3:30 am45 °FLow clouds.No wind100%30.48 "Hg5 mi
3:00 am45 °FFog.2 mph100%30.48 "Hg3 mi
2:30 am45 °FClear.2 mph100%30.48 "Hg4 mi
2:00 am45 °FClear.5 mph93%30.48 "Hg4 mi
1:30 am45 °FPassing clouds.8 mph100%30.48 "Hg5 mi
1:00 am45 °FFog.3 mph100%30.51 "Hg3 mi
12:30 am46 °FClear.3 mph100%30.51 "Hg4 mi
12:00 am46 °FClear.3 mph100%30.51 "Hg5 mi
11:30 pm
Thu, Dec 8
46 °FClear.5 mph93%30.51 "Hg5 mi
11:00 pm48 °FPassing clouds.3 mph94%30.51 "HgN/A
10:30 pm48 °FFog.3 mph100%30.51 "Hg4 mi
10:00 pm48 °FFog.5 mph100%30.51 "Hg1 mi
9:30 pm46 °FFog.3 mph93%30.51 "Hg1 mi
9:00 pm48 °FFog.2 mph94%30.51 "Hg2 mi
8:30 pm50 °FFog.3 mph94%30.51 "Hg3 mi
8:00 pm50 °FClear.5 mph100%30.51 "Hg4 mi
7:30 pm52 °FClear.3 mph88%30.51 "Hg4 mi
7:00 pm52 °FClear.6 mph100%30.51 "Hg4 mi
6:30 pm52 °FClear.3 mph94%30.51 "Hg10 mi
6:00 pm54 °FClear.6 mph94%30.51 "Hg10 mi
5:30 pm55 °FPassing clouds.1 mph88%30.51 "HgN/A
5:00 pm55 °FSunny.7 mph88%30.51 "Hg10 mi
4:30 pm57 °FSunny.9 mph82%30.51 "Hg10 mi
4:00 pm59 °FPassing clouds.10 mph82%30.51 "HgN/A
3:30 pm59 °FSunny.12 mph82%30.51 "Hg10 mi
3:00 pm59 °FPassing clouds.12 mph82%30.51 "HgN/A
2:30 pm61 °FPassing clouds.10 mph77%30.51 "HgN/A
2:00 pm61 °FPassing clouds.14 mph77%30.51 "HgN/A
1:30 pm61 °FPassing clouds.13 mph72%30.51 "HgN/A
1:00 pm61 °FPassing clouds.13 mph72%30.54 "HgN/A
12:30 pm59 °FPartly sunny.14 mph82%30.54 "HgN/A
12:00 pm57 °FScattered clouds.7 mph88%30.54 "HgN/A
11:30 am55 °FPassing clouds.3 mph88%30.54 "HgN/A
11:00 am54 °FPassing clouds.3 mph94%30.54 "HgN/A
10:30 am50 °FPartly sunny.No wind100%30.54 "HgN/A
10:00 am48 °FOvercast.3 mph94%30.54 "HgN/A
Weather by CustomWeather, © 2016

See weather overviewHow to use our weather pages